Hourly Data Report for January 05, 2017

TORONTO CITY
ONTARIO

43°40'00.000" N
79°24'00.000" W
112.50 m
6158355
71508
XTO

Download Data

Hourly Data (January 2017)
Hourly Data Report for January 5, 2017
TIME
LST
Temp Definition
°C
Dew Point Definition
°C
Rel Hum Definition
%
Precip. Amount Definition
mm

Wind Dir Definition
10's deg

Wind Spd Definition
km/h
Visibility Definition
km
Stn Press Definition
kPa
Hmdx Definition


Wind Chill Definition


Weather Definition


00:00 -7.5 -13.4 63 0.0 LegendMM LegendMM   99.17     LegendNANA
01:00 -7.4 -12.8 65 0.0 LegendMM LegendMM   99.19     LegendNANA
02:00 -6.5 -12.1 64 0.0 LegendMM LegendMM   99.28     LegendNANA
03:00 -6.2 -12.1 63 0.0 LegendMM LegendMM   99.38     LegendNANA
04:00 -6.2 -12.1 63 0.0 LegendMM LegendMM   99.43     LegendNANA
05:00 -6.4 -11.8 65 0.0 LegendMM LegendMM   99.51     LegendNANA
06:00 -6.9 -11.2 72 0.0 LegendMM LegendMM   99.59     LegendNANA
07:00 -6.7 -12.3 64 0.0 LegendMM LegendMM   99.60     LegendNANA
08:00 -7.5 -12.4 68 0.0 LegendMM LegendMM   99.67     LegendNANA
09:00 -7.3 -12.2 68 0.0 LegendMM LegendMM   99.72     LegendNANA
10:00 -7.0 -12.8 63 0.0 LegendMM LegendMM   99.76     LegendNANA
11:00 -6.3 -12.7 61 0.0 LegendMM LegendMM   99.77     LegendNANA
12:00 -6.5 -13.2 59 0.0 LegendMM LegendMM   99.73     LegendNANA
13:00 -6.0 -13.2 57 0.0 LegendMM LegendMM   99.67     LegendNANA
14:00 -5.6 -12.1 60 0.0 LegendMM LegendMM   99.63     LegendNANA
15:00 -5.7 -13.3 55 0.0 LegendMM LegendMM   99.63     LegendNANA
16:00 -6.1 -12.8 59 0.0 LegendMM LegendMM   99.69     LegendNANA
17:00 -6.7 -11.5 68 0.0 LegendMM LegendMM   99.66     LegendNANA
18:00 -6.9 -11.9 67 0.0 LegendMM LegendMM   99.71     LegendNANA
19:00 -7.3 -12.1 68 0.0 LegendMM LegendMM   99.77     LegendNANA
20:00 -7.7 -12.7 68 0.0 LegendMM LegendMM   99.81     LegendNANA
21:00 -8.5 -13.1 69 0.0 LegendMM LegendMM   99.84     LegendNANA
22:00 -8.9 -14.0 66 0.0 LegendMM LegendMM   99.90     LegendNANA
23:00 -9.4 -14.8 65 0.0 LegendMM LegendMM   99.98     LegendNANA

Notes on Data Quality.

Legend

  • E = Estimated
  • M = Missing
  • NA = Not Available*
  • [empty] = Indicates an unobserved value
Date modified: